TimeEST,TemperatureF,Dew PointF,Humidity,Sea Level PressureIn,VisibilityMPH,Wind Direction,Wind SpeedMPH,Gust SpeedMPH,PrecipitationIn,Events,Conditions,WindDirDegrees,DateUTC
12:16 AM,6.8,1.0,77,29.86,10.0,NW,10.4,-,N/A,,Scattered Clouds,320,2013-02-01 05:16:00
12:37 AM,6.8,0.5,75,29.87,10.0,NW,10.4,-,N/A,,Overcast,320,2013-02-01 05:37:00
1:17 AM,7.7,2.3,79,29.87,4.0,NW,12.7,19.6,N/A,Snow,Light Snow,310,2013-02-01 06:17:00
1:37 AM,7.9,0.9,73,29.88,7.0,NW,11.5,18.4,N/A,,Overcast,320,2013-02-01 06:37:00
1:56 AM,7.5,1.2,75,29.89,10.0,NW,12.7,18.4,N/A,,Overcast,310,2013-02-01 06:56:00
2:17 AM,7.2,0.9,75,29.89,10.0,NW,13.8,17.3,N/A,,Overcast,310,2013-02-01 07:17:00
2:37 AM,6.8,-0.4,72,29.90,10.0,NW,12.7,21.9,N/A,,Overcast,310,2013-02-01 07:37:00
2:57 AM,7.0,-1.5,68,29.91,10.0,NW,13.8,25.3,N/A,,Overcast,320,2013-02-01 07:57:00
3:17 AM,6.8,-2.2,67,29.92,10.0,NW,16.1,24.2,N/A,,Overcast,310,2013-02-01 08:17:00
3:36 AM,5.9,-1.7,71,29.92,10.0,NW,11.5,18.4,N/A,,Scattered Clouds,310,2013-02-01 08:36:00
3:57 AM,5.7,-1.3,73,29.93,10.0,NW,12.7,-,N/A,,Mostly Cloudy,320,2013-02-01 08:57:00
4:17 AM,5.5,-1.3,73,29.94,10.0,NW,10.4,-,N/A,,Overcast,320,2013-02-01 09:17:00
4:36 AM,5.9,-0.9,73,29.94,10.0,NNW,9.2,16.1,N/A,,Overcast,330,2013-02-01 09:36:00
4:57 AM,6.8,-0.4,72,29.95,10.0,NW,8.1,-,N/A,,Overcast,320,2013-02-01 09:57:00
5:17 AM,5.9,-0.2,76,29.96,10.0,NW,6.9,-,N/A,,Overcast,320,2013-02-01 10:17:00
5:36 AM,5.9,-0.4,75,29.96,10.0,NNW,10.4,-,N/A,,Overcast,330,2013-02-01 10:36:00
5:57 AM,6.3,-1.3,71,29.97,10.0,NNW,8.1,-,N/A,,Overcast,330,2013-02-01 10:57:00
6:50 AM,5.0,-2.2,72,29.97,10.0,NNW,8.1,-,N/A,,Scattered Clouds,330,2013-02-01 11:50:00
7:50 AM,1.4,-4.0,78,29.99,10.0,WNW,4.6,-,N/A,,Scattered Clouds,300,2013-02-01 12:50:00
8:50 AM,1.4,-4.0,78,30.02,10.0,West,5.8,-,N/A,,Scattered Clouds,260,2013-02-01 13:50:00
9:50 AM,3.2,-2.2,78,30.02,10.0,West,11.5,-,N/A,,Scattered Clouds,260,2013-02-01 14:50:00
10:50 AM,5.0,-4.0,66,30.03,10.0,West,13.8,-,N/A,,Clear,280,2013-02-01 15:50:00
11:50 AM,5.0,-4.0,66,30.04,10.0,WNW,8.1,-,N/A,,Scattered Clouds,300,2013-02-01 16:50:00
12:50 PM,5.0,-5.8,61,30.03,10.0,NW,5.8,-,N/A,,Scattered Clouds,310,2013-02-01 17:50:00
1:33 PM,6.8,-4.0,61,30.02,10.0,WNW,10.4,16.1,N/A,,Mostly Cloudy,290,2013-02-01 18:33:00
1:50 PM,5.0,-5.8,61,30.01,10.0,WNW,9.2,-,N/A,,Mostly Cloudy,300,2013-02-01 18:50:00
2:50 PM,6.8,-4.0,61,30.01,10.0,West,5.8,-,N/A,,Mostly Cloudy,280,2013-02-01 19:50:00
3:50 PM,6.8,-4.0,61,30.01,10.0,West,5.8,-,N/A,,Overcast,280,2013-02-01 20:50:00
4:50 PM,5.0,-5.8,61,30.00,10.0,West,6.9,-,N/A,,Mostly Cloudy,280,2013-02-01 21:50:00
5:50 PM,3.2,-5.8,66,30.00,10.0,WNW,4.6,-,N/A,,Clear,290,2013-02-01 22:50:00
6:50 PM,3.2,-5.8,66,30.00,10.0,Calm,Calm,-,N/A,,Mostly Cloudy,0,2013-02-01 23:50:00
7:55 PM,-0.4,-5.8,78,30.01,10.0,West,3.5,-,N/A,,Overcast,260,2013-02-02 00:55:00
8:50 PM,-0.4,-5.8,78,30.01,10.0,WNW,6.9,-,N/A,,Mostly Cloudy,290,2013-02-02 01:50:00
9:50 PM,-2.2,-7.6,78,30.00,10.0,WNW,6.9,-,N/A,,Overcast,300,2013-02-02 02:50:00
10:16 PM,-2.2,-8.5,75,30.00,10.0,West,3.5,-,N/A,,Overcast,280,2013-02-02 03:16:00
10:37 PM,-2.4,-8.5,75,30.00,10.0,WNW,6.9,-,N/A,,Overcast,300,2013-02-02 03:37:00
10:57 PM,-2.2,-8.7,74,30.00,10.0,WNW,8.1,-,N/A,,Overcast,290,2013-02-02 03:57:00
11:16 PM,-1.8,-9.0,71,29.99,10.0,WNW,8.1,-,N/A,,Overcast,290,2013-02-02 04:16:00
11:37 PM,-1.8,-9.2,71,29.99,10.0,West,6.9,-,N/A,,Overcast,280,2013-02-02 04:37:00
11:57 PM,-1.5,-9.4,69,29.99,10.0,WNW,8.1,-,N/A,,Overcast,290,2013-02-02 04:57:00